Regional Weather Roundup
Issued by NWS

Home | Current Version | Previous Version | Graphics & Text | Print | Product List | Glossary On
Versions: 1 2 3 4 5 6 7 8 9 10 11 12 13 14 15 16 17 18 19 20 21 22 23 24 25 26 27 28 29 30 31 32 33 34 35 36 37 38 39 40 41 42 43 44 45 46 47 48 49 50
352
ASUS43 KLMK 231702
RWRKY
KENTUCKY REGIONAL WEATHER ROUNDUP
NATIONAL WEATHER SERVICE LOUISVILLE KY
100 PM EDT FRI JUN 23 2017

NOTE "FAIR" INDICATES FEW OR NO CLOUDS BELOW 12,000 FEET
WITH NO SIGNIFICANT WEATHER AND/OR OBSTRUCTIONS TO VISIBILITY.

KYZ001>023-026-027-061>063-070>075-231800-
WESTERN AND SOUTH CENTRAL KENTUCKY

CITY           SKY/WX    TMP DP  RH WIND       PRES   REMARKS
PADUCAH        LGT RAIN  76  73  91 E6        29.67F FOG
HENDERSON      LGT RAIN  75  74  96 S6        29.72F
OWENSBORO      LGT RAIN  76  73  91 SW9       29.73S FOG
HOPKINSVILLE   RAIN      76  73  93 SE10      29.70F FOG
BOWLING GREEN  CLOUDY    84  73  69 S16       29.75F HX  90
GLASGOW        NOT AVBL
$$

KYZ024-025-028>034-038-045-046-053-231800-
NORTH CENTRAL KENTUCKY

CITY           SKY/WX    TMP DP  RH WIND       PRES   REMARKS
LOUISVILLE/SDF CLOUDY    84  71  65 SW14G22   29.74F
LOUISVILLE/LOU CLOUDY    83  73  72 S13G21    29.74F
FORT KNOX      PTSUNNY   81  70  70 S13G22    29.74F
$$

KYZ035>037-039>044-047>052-055>060-089>105-231800-
NORTHEAST KENTUCKY

CITY           SKY/WX    TMP DP  RH WIND       PRES   REMARKS
LEXINGTON      PTSUNNY   83  69  62 SW18G24   29.79F
COVINGTON      CLOUDY    81  71  71 SW16G24   29.73F
FRANKFORT      PTSUNNY   85  71  63 SW16G24   29.76F HX  90
$$

KYZ054-064>069-076>088-106>120-231800-
SOUTHEAST KENTUCKY

CITY           SKY/WX    TMP DP  RH WIND       PRES   REMARKS
JACKSON        CLOUDY    78  70  76 VRB3      29.87F
LONDON         CLOUDY    79  71  76 SW10      29.88F
SOMERSET       CLOUDY    77  70  78 S6        29.86F
MIDDLESBORO    CLOUDY    79  71  75 S8G16     29.92F
MONTICELLO     LGT RAIN  79  74  84 S10G18    29.86F
$$





USA.gov is the U.S. government's official web portal to all federal, state and local government web resources and services.